Location: Buchloe
(48.0161°N, 10.7316°E)
Time: 03:53:34
(UTC+02:00)

ISS - Pass Details

Date: 15 July 2025
Orbit: 413 x 417 km, 51.6° (Epoch: 12 July)

Event Time Altitude Azimuth Distance (km) Brightness Sun altitude
Rises 21:55:05 0° 270° (W) 2,348 0.8 -6.4°
Reaches altitude 10° 21:57:14 10° 276° (W) 1,487 -0.1 -6.7°
Maximum altitude 22:00:28 46° 351° (N) 565 -2.7 -7.1°
Drops below altitude 10° 22:03:43 10° 67° (ENE) 1,490 -1.2 -7.5°
Sets 22:05:52 0° 74° (ENE) 2,355 -0.2 -7.8°
